Weather in Brno

Czech Republic     49°11′32″N   16°36′18″E
temp.,
°C
wind,
m/s
gust,
m/s
humid.,
%
clouds,
%
prec.,
mm/h
press.,
hPa
HPBL,
m
16 may, sun
sun1623:00+9s119899 2.3 100616
02:00+9ssw1199100 3.9 100764
05:00+9sw129962 0.0 100672
08:00+10wnw399173 0.1 1007533
11:00+14w4661100 0.1 10071564
14:00+16w465299 0.3 10071903
17:00+15sw355754 0.2 10051344
20:00+11se22794 0.3 100527
17 may, mon
mon1723:00+8ene1193100 0.3 100610
02:00+9e2196100 0.8 100526
05:00+9nnw2896100 0.9 1005308
08:00+9nnw1796100 4.6 1005543
11:00+10nw3793100 2.3 1006674
14:00+12nw5986100 4.9 10061022
17:00+13wnw61070100 0.3 10071170
20:00+10wnw5128080 0.3 1009952
18 may, tue
tue1823:00+9wnw513795 0.0 1010778
02:00+7wnw514855 0.0 1011722
05:00+9wnw6117596 0.0 1012966
08:00+9w4108091 0.0 1013863
11:00+13w61060100 0.1 10131604
14:00+12wnw586768 0.1 10131059
17:00+15wnw585629 0.3 10121636
20:00+11wnw41076100 0.4 1013495
19 may, wed
wed1923:00+9wnw4118496 0.1 1015467
02:00+8nw41285100 0.1 1016495
05:00+7wnw41191100 0.0 1016476
08:00+9nw4874100 0.0 1016753
11:00+11nw4567100 0.3 10161157
14:00+14wnw465220 1.1 10151644
17:00+14wnw56534 0.1 10141360
20:00+10nw22735 0.1 101419
20 may, thu
thu2023:00+6nw22930 0.0 101615
02:00+5nw22955 0.0 101730
05:00+3nw25950 0.0 1017101
08:00+10nnw49660 0.0 1017753
11:00+14nnw464971 0.0 10171864
14:00+15nnw455198 0.5 10172116
17:00+14nw576819 1.0 10171420
20:00+9nw512830 1.6 1019740